User: anonymous   Login
Location: Caltech
(34.1382°N, 118.1253°W)
Time: 23:33:01
(UTC-07:00)
Language:

TMSAT-1 - Orbit

View from above orbital plane
View from above orbital plane
View from above satellite
View from above satellite

Ground track
Ground track

The orbit data is extracted from the following two-line orbital elements,

1 25396U 98043C   15113.82482244  .00000271  00000-0  13582-3 0  9996
2 25396 098.4852 069.1168 0003821 094.0590 323.9089 14.24306737872373
Epoch (UTC): 23 April 2015 19:47:44
Eccentricity: 0.0003821
inclination: 98.4852°
perigee height: 808 km
apogee height: 813 km
right ascension of ascending node: 69.1168°
argument of perigee: 94.0590°
revolutions per day: 14.24306737
mean anomaly at epoch: 323.9089°
orbit number at epoch: 87237

The dashed part of the orbit path shows where the satellite is in the earth's shadow,  

DLR